Torna al catalogo

STARLINK-34225

AttivoComunicazioniVLEO
NORAD 64414·PAYLOAD·🇺🇸 United States

Lanciato Jun 17, 2025 da Vandenberg Space Force Base

Loading…

Prossimi Passaggi (prossime 24 ore)

TLE

AggiornatoSource: CelesTrak SupGP

Epoca: Sep 15, 2026, 03:52 UTC

1 64414C 25129C   26258.16159722  .00005270  00000+0  18348-3 0  2582
2 64414  70.0001 314.9148 0003339 266.1341  98.3751 15.29550140    16

Traccia STARLINK-34225 in tempo reale con AllMySat

Download on the App Store